Radiation Dose at Monitoring Post of Fukushima Daini Nuclear Power Station
Date,Time,MP-1(microSv/h),MP-2(microSv/h),MP-3(microSv/h),MP-4(microSv/h),MP-5(microSv/h),MP-6(microSv/h),MP-7(microSv/h),Wind Direction,Wind Velocity(m/s),Rain
2019/10/20,00:00,0.179,0.159,0.266,0.249,0.255,0.136,0.085,west-northwest,2.1,No
2019/10/20,00:10,0.181,0.159,0.268,0.251,0.258,0.135,0.086,west-southwest,0.8,No
2019/10/20,00:20,0.180,0.161,0.267,0.250,0.257,0.134,0.085,northwest,1.6,Yes
2019/10/20,00:30,0.181,0.159,0.269,0.251,0.258,0.136,0.086,north-northwest,2.4,No
2019/10/20,00:40,0.179,0.159,0.266,0.250,0.257,0.134,0.085,northwest,2.0,No
2019/10/20,00:50,0.181,0.158,0.269,0.251,0.257,0.135,0.085,west-northwest,3.3,No
2019/10/20,01:00,0.179,0.160,0.265,0.251,0.258,0.135,0.086,west-northwest,5.2,No
2019/10/20,01:10,0.178,0.159,0.268,0.250,0.255,0.136,0.085,west-northwest,4.7,No
2019/10/20,01:20,0.180,0.160,0.264,0.251,0.258,0.134,0.085,west-northwest,4.4,Yes
2019/10/20,01:30,0.179,0.159,0.268,0.248,0.256,0.134,0.086,northwest,4.8,No
2019/10/20,01:40,0.180,0.159,0.265,0.250,0.259,0.134,0.084,northwest,5.6,No
2019/10/20,01:50,0.177,0.158,0.268,0.248,0.256,0.134,0.084,northwest,5.8,No
2019/10/20,02:00,0.179,0.159,0.264,0.251,0.255,0.135,0.085,north-northwest,7.3,No
2019/10/20,02:10,0.177,0.157,0.267,0.248,0.257,0.134,0.084,north-northwest,5.3,No
2019/10/20,02:20,0.179,0.158,0.266,0.251,0.255,0.135,0.084,north-northwest,5.2,No
2019/10/20,02:30,0.179,0.157,0.266,0.248,0.258,0.134,0.084,north-northwest,5.5,No
2019/10/20,02:40,0.177,0.158,0.267,0.250,0.256,0.134,0.084,north,2.8,No
2019/10/20,02:50,0.179,0.158,0.264,0.250,0.259,0.134,0.083,north,3.6,No
2019/10/20,03:00,0.178,0.158,0.267,0.248,0.257,0.134,0.084,north,5.0,No
2019/10/20,03:10,0.178,0.157,0.266,0.251,0.255,0.134,0.084,north-northwest,5.4,No
2019/10/20,03:20,0.177,0.158,0.266,0.249,0.257,0.134,0.084,north-northwest,5.0,No
2019/10/20,03:30,0.178,0.158,0.264,0.251,0.256,0.135,0.083,north,5.1,No
2019/10/20,03:40,0.177,0.160,0.267,0.249,0.257,0.133,0.084,north,4.4,No
2019/10/20,03:50,0.178,0.158,0.265,0.251,0.256,0.135,0.084,north,4.9,No
2019/10/20,04:00,0.179,0.158,0.267,0.250,0.257,0.134,0.083,north,5.0,No
2019/10/20,04:10,0.178,0.158,0.266,0.251,0.256,0.134,0.084,north,5.8,No
2019/10/20,04:20,0.178,0.158,0.266,0.250,0.256,0.133,0.084,north,5.1,No
2019/10/20,04:30,0.178,0.159,0.267,0.250,0.256,0.133,0.084,north,5.0,No
2019/10/20,04:40,0.179,0.158,0.267,0.249,0.256,0.134,0.083,north,4.5,No
2019/10/20,04:50,0.178,0.158,0.269,0.249,0.258,0.134,0.085,north,5.4,No
2019/10/20,05:00,0.179,0.158,0.266,0.251,0.256,0.135,0.083,north-northwest,5.5,No
2019/10/20,05:10,0.178,0.159,0.268,0.249,0.258,0.134,0.085,north-northwest,5.2,No
2019/10/20,05:20,0.178,0.157,0.265,0.251,0.256,0.133,0.083,north-northwest,5.5,No
2019/10/20,05:30,0.179,0.159,0.267,0.248,0.257,0.134,0.084,north-northwest,7.6,No
2019/10/20,05:40,0.178,0.158,0.265,0.251,0.256,0.133,0.084,north-northwest,8.1,No
2019/10/20,05:50,0.180,0.159,0.269,0.249,0.256,0.135,0.084,north-northwest,6.8,No
2019/10/20,06:00,0.178,0.158,0.266,0.250,0.258,0.134,0.083,north-northwest,5.4,No
2019/10/20,06:10,0.179,0.159,0.269,0.250,0.256,0.135,0.084,north-northwest,4.2,No
2019/10/20,06:20,0.178,0.158,0.266,0.250,0.258,0.134,0.084,north,3.3,No
2019/10/20,06:30,0.179,0.159,0.268,0.251,0.256,0.135,0.084,north,4.1,No
2019/10/20,06:40,0.178,0.158,0.268,0.251,0.259,0.134,0.084,north,4.2,No
2019/10/20,06:50,0.179,0.159,0.267,0.251,0.257,0.135,0.084,north,4.5,No
2019/10/20,07:00,0.179,0.157,0.267,0.250,0.258,0.135,0.084,north,5.2,No
2019/10/20,07:10,0.178,0.160,0.268,0.251,0.257,0.135,0.083,north,4.9,No
2019/10/20,07:20,0.179,0.158,0.268,0.249,0.258,0.136,0.085,north,4.4,No
2019/10/20,07:30,0.179,0.158,0.267,0.251,0.256,0.134,0.084,north,4.2,No
2019/10/20,07:40,0.180,0.158,0.268,0.249,0.258,0.135,0.083,north,4.5,No
2019/10/20,07:50,0.178,0.159,0.267,0.251,0.258,0.134,0.084,north,5.1,No
2019/10/20,08:00,0.180,0.158,0.269,0.249,0.256,0.135,0.084,north,5.2,No
2019/10/20,08:10,0.179,0.159,0.266,0.251,0.257,0.134,0.084,north,5.2,No
2019/10/20,08:20,0.179,0.159,0.267,0.250,0.256,0.135,0.083,north,5.2,No
2019/10/20,08:30,0.179,0.159,0.265,0.248,0.258,0.135,0.084,north,3.9,No
2019/10/20,08:40,0.180,0.159,0.269,0.250,0.256,0.134,0.084,north-northwest,4.5,No
2019/10/20,08:50,0.179,0.159,0.265,0.250,0.255,0.136,0.084,north-northwest,4.1,No
2019/10/20,09:00,0.177,0.158,0.267,0.248,0.259,0.134,0.083,north-northwest,5.5,No
2019/10/20,09:10,0.179,0.158,0.267,0.252,0.255,0.135,0.085,north-northwest,5.0,No
2019/10/20,09:20,0.178,0.159,0.267,0.249,0.255,0.135,0.083,north-northwest,5.8,No
2019/10/20,09:30,0.177,0.159,0.269,0.248,0.259,0.135,0.083,north-northwest,5.2,No
2019/10/20,09:40,0.180,0.160,0.266,0.251,0.257,0.133,0.083,north,3.4,No
2019/10/20,09:50,0.178,0.158,0.268,0.250,0.254,0.136,0.084,north-northeast,4.4,No
2019/10/20,10:00,0.176,0.160,0.266,0.250,0.257,0.135,0.085,north-northwest,3.1,No
2019/10/20,10:10,0.179,0.159,0.268,0.247,0.258,0.135,0.084,north,4.3,No
2019/10/20,10:20,0.179,0.158,0.268,0.247,0.256,0.134,0.084,north,5.7,No
2019/10/20,10:30,0.178,0.158,0.266,0.251,0.255,0.135,0.084,north-northeast,7.1,No
2019/10/20,10:40,0.180,0.160,0.268,0.253,0.253,0.135,0.084,north-northeast,6.9,No
2019/10/20,10:50,0.180,0.159,0.266,0.250,0.256,0.135,0.084,north-northeast,5.8,No
2019/10/20,11:00,0.179,0.158,0.268,0.249,0.260,0.135,0.084,north-northeast,7.2,No
2019/10/20,11:10,0.177,0.159,0.267,0.249,0.256,0.135,0.084,north,6.6,No
2019/10/20,11:20,0.180,0.160,0.266,0.248,0.256,0.135,0.083,north,8.1,No
2019/10/20,11:30,0.179,0.159,0.269,0.249,0.255,0.136,0.084,north-northeast,6.5,No
2019/10/20,11:40,0.179,0.158,0.267,0.249,0.256,0.136,0.083,north-northeast,6.8,No
2019/10/20,11:50,0.178,0.159,0.269,0.248,0.259,0.135,0.084,northeast,5.9,No
2019/10/20,12:00,0.179,0.159,0.267,0.250,0.260,0.135,0.084,north-northeast,6.4,No
2019/10/20,12:10,0.180,0.159,0.265,0.254,0.256,0.135,0.084,northeast,6.7,No
2019/10/20,12:20,0.178,0.158,0.268,0.253,0.255,0.135,0.084,northeast,5.6,No
2019/10/20,12:30,0.177,0.159,0.269,0.253,0.254,0.136,0.083,northeast,5.1,No
2019/10/20,12:40,0.180,0.160,0.266,0.252,0.255,0.136,0.083,northeast,7.4,No
2019/10/20,12:50,0.180,0.159,0.267,0.251,0.258,0.136,0.084,northeast,6.4,No
2019/10/20,13:00,0.179,0.159,0.269,0.251,0.259,0.136,0.084,north-northeast,6.7,No
2019/10/20,13:10,0.178,0.159,0.268,0.250,0.258,0.136,0.083,north-northeast,6.5,No
2019/10/20,13:20,0.180,0.158,0.265,0.250,0.257,0.136,0.083,north-northeast,8.7,No
2019/10/20,13:30,0.181,0.160,0.265,0.249,0.256,0.136,0.084,north,7.5,No
2019/10/20,13:40,0.179,0.158,0.267,0.251,0.254,0.135,0.085,north,7.7,No
2019/10/20,13:50,0.180,0.159,0.269,0.254,0.256,0.136,0.085,north,6.2,No
2019/10/20,14:00,0.181,0.160,0.267,0.253,0.259,0.136,0.084,north,5.7,No
2019/10/20,14:10,0.180,0.159,0.266,0.252,0.259,0.136,0.084,north,7.4,No
2019/10/20,14:20,0.178,0.159,0.268,0.250,0.257,0.136,0.084,north,7.7,No
2019/10/20,14:30,0.181,0.160,0.270,0.255,0.257,0.136,0.084,north,6.7,No
2019/10/20,14:40,0.180,0.161,0.268,0.253,0.258,0.135,0.084,north,7.9,No
2019/10/20,14:50,0.179,0.159,0.271,0.252,0.261,0.136,0.085,north,7.8,No
2019/10/20,15:00,0.181,0.160,0.269,0.255,0.258,0.137,0.085,north,8.7,No
2019/10/20,15:10,0.180,0.160,0.269,0.253,0.258,0.136,0.085,north,7.5,No
2019/10/20,15:20,0.180,0.159,0.269,0.252,0.260,0.135,0.085,north,7.8,No
2019/10/20,15:30,0.181,0.160,0.269,0.254,0.258,0.134,0.084,north,7.4,No
2019/10/20,15:40,0.180,0.160,0.268,0.252,0.260,0.137,0.084,north,8.5,No
2019/10/20,15:50,0.181,0.161,0.269,0.255,0.259,0.135,0.084,north,7.7,No
2019/10/20,16:00,0.180,0.159,0.272,0.253,0.258,0.136,0.085,north,8.1,No
2019/10/20,16:10,0.181,0.159,0.269,0.253,0.260,0.137,0.084,north,7.5,No
2019/10/20,16:20,0.180,0.159,0.271,0.253,0.257,0.136,0.084,north,6.3,No
2019/10/20,16:30,0.180,0.160,0.269,0.253,0.259,0.137,0.085,north,7.1,No
2019/10/20,16:40,0.181,0.160,0.271,0.255,0.257,0.136,0.084,north-northwest,5.6,No
2019/10/20,16:50,0.180,0.160,0.270,0.251,0.259,0.136,0.085,north-northwest,5.0,No
2019/10/20,17:00,0.182,0.160,0.268,0.254,0.258,0.136,0.084,north-northwest,5.3,No
2019/10/20,17:10,0.180,0.161,0.270,0.253,0.260,0.138,0.084,north-northwest,5.6,No
2019/10/20,17:20,0.181,0.160,0.269,0.255,0.258,0.136,0.085,north-northwest,7.7,No
2019/10/20,17:30,0.179,0.161,0.270,0.252,0.261,0.136,0.084,north-northwest,7.8,No
2019/10/20,17:40,0.181,0.159,0.270,0.253,0.257,0.136,0.084,northwest,7.8,No
2019/10/20,17:50,0.181,0.161,0.271,0.253,0.261,0.136,0.084,northwest,6.9,No
2019/10/20,18:00,0.181,0.160,0.271,0.254,0.257,0.136,0.085,northwest,7.4,No
2019/10/20,18:10,0.180,0.161,0.270,0.253,0.260,0.137,0.085,northwest,6.8,No
2019/10/20,18:20,0.179,0.160,0.270,0.253,0.259,0.136,0.085,northwest,7.6,No
2019/10/20,18:30,0.181,0.161,0.271,0.254,0.261,0.137,0.085,west-northwest,9.3,No
2019/10/20,18:40,0.182,0.159,0.271,0.253,0.257,0.137,0.085,northwest,7.9,No
2019/10/20,18:50,0.181,0.161,0.270,0.255,0.261,0.137,0.084,northwest,8.1,No
2019/10/20,19:00,0.181,0.161,0.272,0.253,0.257,0.136,0.085,northwest,6.8,No
2019/10/20,19:10,0.181,0.160,0.270,0.255,0.259,0.136,0.084,northwest,6.8,No
2019/10/20,19:20,0.180,0.161,0.272,0.253,0.258,0.137,0.085,northwest,8.1,No
2019/10/20,19:30,0.181,0.160,0.270,0.255,0.260,0.136,0.084,northwest,7.3,No
2019/10/20,19:40,0.182,0.159,0.271,0.253,0.258,0.136,0.085,northwest,7.1,No
2019/10/20,19:50,0.181,0.161,0.269,0.254,0.260,0.137,0.085,northwest,5.2,No
2019/10/20,20:00,0.181,0.161,0.272,0.253,0.259,0.137,0.084,north-northwest,4.3,No
2019/10/20,20:10,0.181,0.160,0.270,0.254,0.258,0.137,0.086,north-northwest,5.2,No
2019/10/20,20:20,0.181,0.160,0.272,0.253,0.260,0.137,0.085,north-northwest,4.5,No
2019/10/20,20:30,0.181,0.161,0.270,0.255,0.257,0.136,0.085,north-northwest,3.0,No
2019/10/20,20:40,0.182,0.160,0.270,0.254,0.261,0.137,0.084,north-northwest,2.4,No
2019/10/20,20:50,0.181,0.161,0.271,0.253,0.259,0.137,0.085,northwest,2.2,No
2019/10/20,21:00,0.181,0.160,0.270,0.256,0.260,0.136,0.084,west-southwest,1.4,No
2019/10/20,21:10,0.182,0.161,0.271,0.253,0.257,0.138,0.085,-,CALM,No
2019/10/20,21:20,0.182,0.161,0.270,0.254,0.261,0.137,0.084,south,1.6,No
2019/10/20,21:30,0.181,0.160,0.272,0.254,0.259,0.136,0.085,south-southeast,1.5,No
2019/10/20,21:40,0.181,0.161,0.270,0.253,0.258,0.137,0.084,south,1.6,No
2019/10/20,21:50,0.182,0.160,0.271,0.253,0.260,0.137,0.085,east-southeast,1.5,No
2019/10/20,22:00,0.180,0.160,0.270,0.254,0.259,0.137,0.085,east-northeast,0.7,No
2019/10/20,22:10,0.181,0.160,0.270,0.256,0.259,0.136,0.085,northeast,0.6,No
2019/10/20,22:20,0.181,0.160,0.271,0.253,0.257,0.137,0.085,northeast,1.3,No
2019/10/20,22:30,0.181,0.160,0.270,0.254,0.259,0.137,0.084,-,CALM,No
2019/10/20,22:40,0.182,0.161,0.271,0.255,0.259,0.137,0.085,northeast,1.7,No
2019/10/20,22:50,0.181,0.160,0.271,0.254,0.260,0.137,0.085,north-northeast,1.4,No
2019/10/20,23:00,0.182,0.161,0.271,0.254,0.259,0.137,0.085,northeast,1.0,No
2019/10/20,23:10,0.182,0.160,0.272,0.255,0.260,0.137,0.085,north-northeast,0.7,No
2019/10/20,23:20,0.183,0.161,0.271,0.255,0.260,0.137,0.085,northeast,0.6,No
2019/10/20,23:30,0.181,0.161,0.271,0.255,0.258,0.137,0.085,northeast,1.7,No
2019/10/20,23:40,0.181,0.160,0.271,0.254,0.260,0.137,0.085,northeast,1.3,No
2019/10/20,23:50,0.181,0.160,0.270,0.255,0.258,0.138,0.085,northeast,0.8,No
